Powrót do katalogu

COSMOS 1275 DEB

AktywnyPO
NORAD 42206·DEBRIS·🇷🇺 Russia

Wystrzelony Jun 4, 1981 z Plesetsk Cosmodrome

Loading…

Następne Przeloty (najbliższe 24 godziny)

TLE

ŚwieżeSource: Space-Track

Epoka: Sep 12, 2026, 02:42 UTC

1 42206U 81053TW  26255.11259468  .00000507  00000-0  40764-3 0  9993
2 42206  82.9224  22.6925 0038712 242.9435 238.1324 13.88393476517041

Śledź COSMOS 1275 DEB w czasie rzeczywistym z AllMySat

Download on the App Store